Whiteman AFB, MO

8:43 AM CST on December 08, 2016 (GMT -0600)
Whiteman Air Force Base

Weather History for KSZL - July, 2013

Change the Weather History Date:

Friday, July 5, 2013

  Actual Average Record
Temperature  
Mean Temperature 75 °F -  
Max Temperature 88 °F 86 °F 101 °F (2012)
Min Temperature 62 °F 67 °F 55 °F (1997)
Cooling Degree Days 10    
Growing Degree Days 25 (Base 50)    
Moisture  
Dew Point 62 °F    
Average Humidity 64    
Maximum Humidity 98    
Minimum Humidity 37    
Precipitation  
Precipitation 0.00 in - - ()
Sea Level Pressure  
Sea Level Pressure 29.99 in    
Wind  
Wind Speed 7 mph (SSE)    
Max Wind Speed 15 mph    
Max Gust Speed 18 mph    
Visibility 10 miles    
Events      
Averages and records for this station are not official NWS values.
T = Trace of Precipitation, MM = Missing Value Source: NWS Daily Summary

Daily Weather History Graph

Daily Weather History Graph

Search for Another Location

Airport or City:

Trip Planner

Search our weather history database for the weather conditions in past years. The results will help you decide how hot, cold, wet, or windy it might be!

Date:

Astronomy

Jul. 05, 2013 Rise Set
Actual Time 5:55 AM CDT 8:42 PM CDT
Civil Twilight 5:23 AM CDT 9:13 PM CDT
Nautical Twilight 4:43 AM CDT 9:53 PM CDT
Astronomical Twilight 3:58 AM CDT 10:38 PM CDT
Moon 3:54 AM CDT (7/5) 6:38 PM CDT (7/5)
Length of Visible Light 15h 50m
Length of Day
14h 46m
Waning Crescent, 6% of the Moon is Illuminated
Jul 5
Waning Crescent
Jul 8
New
Jul 15
First Quarter
Jul 22
Full
Jul 29
Last Quarter

Hourly Weather History & Observations

Time (CDT) Temp. Heat Index Dew Point Humidity Pressure Visibility Wind Dir Wind Speed Gust Speed Precip Events Conditions
12:58 AM 67.1 °F - 57.6 °F 71% 30.01 in 10.0 mi SSE 5.8 mph - N/A   Clear
1:58 AM 66.9 °F - 58.8 °F 75% 30.00 in 10.0 mi SSE 4.6 mph - N/A   Clear
2:58 AM 64.4 °F - 59.5 °F 84% 30.00 in 10.0 mi SSE 4.6 mph - N/A   Clear
3:58 AM 63.5 °F - 60.6 °F 90% 30.00 in 10.0 mi SSE 2.3 mph - N/A   Clear
4:58 AM 63.0 °F - 61.2 °F 94% 30.01 in 10.0 mi South 5.8 mph - N/A   Clear
5:58 AM 62.2 °F - 61.7 °F 98% 30.02 in 10.0 mi SSE 4.6 mph - N/A   Clear
6:58 AM 64.0 °F - 62.6 °F 95% 30.02 in 10.0 mi Variable 4.6 mph - N/A   Clear
7:58 AM 68.5 °F - 62.4 °F 81% 30.02 in 10.0 mi South 8.1 mph - N/A   Clear
8:58 AM 74.3 °F - 61.5 °F 64% 30.03 in 10.0 mi SSW 12.7 mph - N/A   Clear
9:58 AM 78.1 °F - 62.1 °F 58% 30.03 in 10.0 mi SSW 11.5 mph - N/A   Clear
10:58 AM 81.1 °F 82.5 °F 63.3 °F 55% 30.02 in 10.0 mi SSW 9.2 mph - N/A   Clear
11:58 AM 84.4 °F 85.0 °F 62.4 °F 47% 30.01 in 10.0 mi South 9.2 mph - N/A   Clear
12:55 PM 86.0 °F 86.6 °F 62.6 °F 45% 30.02 in 10.0 mi SSW 12.7 mph - N/A   Partly Cloudy
1:58 PM 86.7 °F 87.0 °F 61.5 °F 43% 30.00 in 10.0 mi South 12.7 mph 18.4 mph N/A   Clear
2:58 PM 87.3 °F 87.0 °F 59.9 °F 40% 29.98 in 10.0 mi South 15.0 mph - N/A   Clear
3:58 PM 88.2 °F 87.3 °F 59.2 °F 37% 29.97 in 10.0 mi Variable 5.8 mph - N/A   Clear
4:58 PM 87.8 °F 87.6 °F 60.4 °F 40% 29.96 in 10.0 mi South 10.4 mph - N/A   Clear
5:58 PM 86.9 °F 87.0 °F 61.0 °F 42% 29.94 in 10.0 mi South 11.5 mph - N/A   Clear
6:58 PM 84.7 °F 85.0 °F 61.0 °F 45% 29.94 in 10.0 mi SSE 8.1 mph - N/A   Clear
7:58 PM 81.7 °F 82.3 °F 61.0 °F 49% 29.94 in 10.0 mi SE 5.8 mph - N/A   Clear
8:58 PM 78.1 °F - 64.0 °F 62% 29.94 in 10.0 mi SE 6.9 mph - N/A   Clear
9:58 PM 75.6 °F - 64.8 °F 69% 29.95 in 10.0 mi SE 5.8 mph - N/A   Clear
10:58 PM 73.8 °F - 66.2 °F 77% 29.96 in 10.0 mi SE 5.8 mph - N/A   Clear
11:58 PM 72.3 °F - 64.0 °F 75% 29.98 in 10.0 mi SE 5.8 mph - N/A   Clear